星链-32362 (STARLINK-32362)

导读

STARLINK-32362是美国SpaceX公司于2024年11月7日发射的星链低轨互联网通信卫星,属于星链卫星星座的组网卫星,运行在近地轨道。星链项目旨在为全球提供高速低延迟宽带互联网接入,该卫星大概率为V2 Mini版本,支持手机直连功能,配备激光星间链路,助力星链实现全球覆盖,提升网络性能,不过星链大规模扩张也引发太空垃圾、轨道安全等争议。

Basic Information
目录编号:
61845
目录名称:
STARLINK-32362
国际标识:
2024-202A
轨道中心:
EARTH
卫星名称:
星链-32362
卫星全名:
星链-32362 (STARLINK-32362)
卫星状态:
在轨 (已飞行666 天)
发射日期:
2024-11-07 UTC
国别 :
美国 (US)
星等 :
--
Orbit Information
数据来源 国际轨道数据
星历时间: 2026-09-04T12:04:09+0800
4小时前
查看轨道信息
半长轴: 6861.197km
偏心率: 0.0001265
轨道倾角: 43.002°
近地点辐角 284.661°
升交点赤经 298.802°
平近点角 75.410°
近地点: 482.192km
远地点: 483.928km
周期: 94.267分钟
每日圈数: 15.275764
Detailed Information
固有亮度:
5
最大亮度:
2.5
卫星平台:
Starlink V1.0
覆盖范围:
全球
运营商:
太空探索技术公司
运营商所在国:
美国
制造商(研发单位):
太空探索技术公司
制造商所在国:
美国
使用方式:
暂无
Satellite Introduction
Starlink 计划是 SpaceX 推出的全球卫星互联网项目,通过发射低轨道卫星,为全球尤其是偏远地区提供高速、低延迟的互联网服务。自 2019 年起,Starlink 已部署数千颗卫星,旨在缩小全球数字鸿沟,推动互联网普及。该项目还为军事、航空等行业提供通信支持,带来广泛经济效益。
2D Orbit Map
3D Orbit Map
Orbit Altitude Analysis Chart
Orbit Inclination Analysis Chart
Orbit Comprehensive Analysis Chart
View Comprehensive Chart
Conjunction Data List
Event ID Objects TCA Miss Dist (km) Collision Risk Probability Collision Risk Index (CRI) Action
CDM_260905-014406-184506-192521
2026-09-05T
01:44:39+0000
0.182 km
中距离
6.222088E-4 高风险 0.91
CDM_260905-084806-184506-192521
2026-09-05T
08:48:20+0000
0.718 km
远距离
3.887357E-5 中风险 0.67
CDM_260905-102206-184506-192521
2026-09-05T
10:22:29+0000
1.399 km
极远距离
4.116196E-6 低风险 0.47
CDM_260906-123701-957306-184521
2026-09-06T
12:37:56+0000
1.523 km
极远距离
3.20998E-6 低风险 0.45
CDM_260905-124806-184506-356921
2026-09-05T
12:48:28+0000
1.872 km
极远距离
2.286739E-6 低风险 0.42
CDM_260905-031806-184506-192521
2026-09-05T
03:18:48+0000
1.844 km
极远距离
1.818378E-6 低风险 0.4
CDM_260905-001006-184506-192521
2026-09-05T
00:10:30+0000
1.928 km
极远距离
1.62311E-6 低风险 0.39
CDM_260905-190904-371106-184521
2026-09-05T
19:09:42+0000
2.315 km
极远距离
1.36269E-6 低风险 0.38
CDM_260905-071406-184506-192521
2026-09-05T
07:14:11+0000
2.645 km
极远距离
8.70063E-7 极低风险 0.34